Temperature
16 16 16 16 17 17 18 20 21 21 20 20 19 19 19 18 17 15 13 13 13 13 14 14 14 14 15 15 14 14 14 14 14 14 14 14 14 14 14 14 15 15 15 15 15 15 15 15 15
16 16 16 17 16 17 18 20 20 19 19 19 19 19 19 17 15 14 13 13 13 13 14 14 14 14 14 14 14 14 14 14 14 14 14 14 14 14 14 14 14 14 14 14 14 14 14 14 15
16 16 17 17 17 18 19 19 19 19 18 18 18 18 17 15 14 13 13 13 13 13 13 13 14 14 14 14 14 14 14 14 14 14 14 14 14 14 14 14 14 14 14 14 14 14 14 14 14
15 16 17 17 17 19 19 19 19 19 18 18 18 17 15 14 13 13 13 13 12 13 13 13 13 13 13 13 14 14 14 14 14 14 14 13 13 14 14 14 14 14 14 14 14 14 14 14 14
15 16 16 17 17 19 19 20 19 19 18 18 17 16 14 13 13 13 13 13 13 12 12 13 13 13 13 13 13 13 13 13 13 13 13 13 13 13 13 13 13 13 13 13 13 14 14 14 14
16 17 16 16 18 18 19 19 19 19 18 18 17 16 13 13 13 13 12 12 12 12 12 12 12 12 12 12 13 13 13 13 13 13 13 13 13 13 13 13 13 13 13 13 13 13 13 13 13
16 16 16 17 17 18 18 19 19 18 18 17 17 16 13 12 12 12 12 12 12 12 12 12 12 12 12 12 12 12 12 12 12 12 12 13 12 12 12 12 12 13 13 13 13 13 13 13 13
15 16 17 17 17 17 18 18 17 17 16 16 16 15 13 12 12 12 12 12 11 11 12 12 12 12 12 12 12 12 12 12 12 12 12 12 12 12 12 12 12 12 12 12 12 12 13 13 13
15 14 15 17 17 17 17 17 16 15 15 14 14 13 12 12 12 11 11 11 11 11 11 11 11 11 11 11 11 11 11 11 11 11 11 12 12 12 12 12 12 12 12 12 12 12 12 12 12
15 14 15 16 16 16 16 16 15 15 14 13 12 12 11 11 11 11 11 11 11 11 11 11 11 11 11 11 11 11 11 11 11 11 11 11 11 11 11 11 11 11 11 12 12 12 12 12 12
15 14 15 15 15 15 15 15 15 14 13 13 12 11 11 11 10 10 10 10 10 10 10 10 11 11 11 11 11 11 11 11 11 11 11 11 11 11 11 11 11 11 11 11 11 11 11 11 11
14 14 14 14 13 13 13 14 13 13 12 12 12 11 11 10 10 10 9 10 10 10 10 10 10 10 10 10 10 10 10 10 10 10 10 10 10 10 10 10 10 10 10 10 10 11 11 11 11
14 13 13 13 12 12 12 12 12 11 11 11 11 11 10 10 10 9 9 9 9 9 10 10 10 10 10 10 10 10 10 10 10 10 10 10 10 10 10 10 10 10 10 10 10 10 10 10 10
13 13 13 13 12 12 11 11 11 11 11 10 10 10 9 9 9 9 9 9 9 9 9 9 9 9 9 9 9 9 9 9 9 9 9 9 9 10 10 9 9 10 10 10 10 9 9 9 10
12 12 12 12 12 12 11 10 10 11 10 10 9 9 9 9 9 9 9 8 9 9 8 9 9 9 9 9 9 9 9 9 9 9 9 9 9 9 9 9 9 9 9 9 9 9 9 9 9
12 12 11 12 12 11 10 10 11 11 10 10 9 9 9 9 8 9 9 8 8 8 8 8 8 8 8 8 8 8 8 9 9 9 9 9 9 9 9 9 9 9 9 9 9 9 9 9 9
11 11 12 12 12 11 10 9 10 10 10 9 9 9 8 8 8 8 8 8 8 8 8 8 8 8 8 8 8 8 8 8 8 8 8 8 8 8 8 8 8 8 8 8 8 8 8 8 8
11 12 12 12 12 11 10 9 10 10 9 9 9 8 8 8 8 8 8 8 8 7 7 7 7 7 7 7 7 7 7 7 7 7 7 8 8 8 7 7 7 7 7 8 8 8 8 8 8
11 11 11 11 11 10 10 9 9 9 9 8 8 8 8 7 7 7 7 7 7 7 7 6 6 6 6 6 6 6 6 6 7 7 7 7 7 7 7 7 7 7 7 7 7 7 7 7 7
10 10 10 11 10 10 9 9 9 9 8 8 8 8 7 7 6 6 6 6 6 6 6 6 6 6 6 6 6 6 6 6 6 6 6 6 6 6 7 6 6 6 6 6 6 6 6 6 6
10 9 9 9 9 9 8 8 8 8 9 8 8 7 7 6 6 6 6 6 6 6 6 5 5 5 5 5 5 5 5 5 5 5 6 6 6 6 6 6 6 6 6 6 6 6 6 6 5
8 9 8 8 7 7 8 7 8 8 8 7 7 7 6 6 5 5 5 5 5 5 5 5 5 4 4 5 5 5 5 5 5 5 5 5 5 5 5 5 5 5 5 5 5 5 5 5 5
7 8 8 7 7 6 7 7 7 8 7 7 6 7 6 5 5 4 4 4 4 4 4 4 4 4 4 4 4 4 4 4 4 4 4 4 4 4 4 4 4 4 4 4 4 4 4 4 4
7 7 7 7 6 6 7 7 7 7 7 7 6 6 6 5 5 4 4 4 4 4 4 4 4 3 3 3 3 3 3 4 3 3 4 4 4 4 4 4 4 4 4 4 4 3 3 3 3
6 6 6 6 6 6 8 7 6 7 7 6 6 6 5 5 4 4 3 3 3 3 3 3 3 3 3 3 3 3 3 3 3 3 3 3 3 3 3 3 3 3 3 3 3 3 3 3 3
6 6 5 6 6 7 7 6 6 6 6 6 6 5 5 4 4 3 3 3 3 2 2 2 2 2 2 2 2 2 2 2 2 2 2 2 2 2 2 2 2 2 2 2 2 2 2 2 2
6 5 6 5 5 5 6 7 6 5 5 5 5 4 4 4 3 3 3 2 2 2 2 2 2 2 1 1 1 1 1 1 2 2 2 1 1 1 2 2 2 2 2 1 1 1 1 1 1
5 5 4 4 4 5 6 6 6 4 4 4 3 3 3 3 3 2 2 2 1 1 1 1 1 1 1 1 1 1 1 1 1 1 1 1 1 1 1 1 1 1 1 1 1 1 1 1 1
4 4 4 4 4 4 4 5 6 5 4 3 3 3 3 2 2 1 1 1 1 1 1 0 0 0 0 0 0 0 0 0 0 0 -0 -0 -0 -0 0 0 0 0 0 0 0 0 0 0 0
4 4 3 3 3 3 3 4 4 4 4 3 3 3 2 2 1 1 0 0 -0 -0 -0 -0 -0 -0 -0 -1 -1 -1 -1 -1 -1 -0 -1 -1 -1 -1 -1 -1 -1 -0 -0 -1 -1 -1 -1 -1 -1
Wind_Speed
12 11 6 3 3 4 5 4 1 2 2 4 5 4 4 5 4 5 3 5 5 7 9 8 8 8 8 9 9 9 9 9 9 10 10 11 11 11 11 12 12 13 13 14 14 14 15 15 15
10 6 3 3 4 5 4 4 2 3 4 4 3 3 3 5 6 7 4 4 4 6 9 8 8 9 9 9 9 9 9 9 9 9 10 10 10 10 11 12 12 13 13 13 14 14 15 15 15
8 6 3 3 4 5 2 3 4 4 5 3 2 3 3 5 5 5 4 3 4 7 9 9 9 9 9 9 9 8 9 9 9 9 9 10 10 10 10 11 11 12 13 13 13 14 14 14 14
4 3 4 5 6 4 2 3 4 4 3 2 2 3 4 6 4 5 4 3 5 7 9 9 9 9 9 9 9 9 9 9 9 9 9 9 9 9 10 10 11 11 12 12 12 13 13 13 13
4 3 5 5 7 5 0 2 2 2 3 4 2 1 5 5 7 7 5 5 5 6 8 9 8 8 9 9 9 9 9 8 8 9 9 9 9 9 9 9 10 10 11 11 11 12 12 13 13
4 4 5 7 7 4 2 1 2 1 1 2 3 1 4 5 6 6 5 5 6 6 7 8 7 7 8 8 8 8 8 9 9 8 8 8 9 9 9 9 9 10 10 10 10 11 11 12 12
4 4 7 7 6 4 2 0 1 1 1 1 1 1 5 5 5 5 5 5 6 7 6 6 6 5 6 7 8 8 8 8 8 9 8 8 8 9 9 10 8 9 9 9 10 10 10 11 11
3 4 6 7 6 3 1 1 2 3 2 2 3 1 4 5 5 5 5 5 5 6 6 5 5 5 5 5 7 7 7 7 7 8 8 8 8 7 8 9 9 8 8 9 9 9 9 10 10
4 4 6 5 4 2 2 1 1 2 1 2 3 5 6 8 6 5 4 4 4 4 4 5 5 5 5 5 6 6 7 7 7 7 7 7 6 6 6 7 8 8 7 8 8 8 9 8 8
3 4 4 4 5 3 2 2 1 1 2 1 2 5 7 6 5 4 3 3 3 3 2 3 4 4 4 4 5 5 5 5 6 6 5 5 6 6 6 7 7 7 7 7 7 7 7 6 6
2 3 3 4 6 4 3 3 2 3 3 2 1 4 6 4 4 3 2 2 2 3 2 2 3 4 4 4 4 4 4 4 5 5 5 5 5 5 6 6 6 6 6 5 5 5 5 5 4
4 3 4 3 4 4 3 3 3 3 3 3 2 3 5 5 4 3 3 2 2 3 3 2 3 3 4 4 4 4 4 4 4 5 6 5 4 3 4 4 4 4 4 4 4 3 4 5 5
6 4 4 2 2 3 4 4 4 5 2 2 3 2 3 4 4 3 2 2 2 3 3 2 3 3 3 4 3 4 4 4 5 5 5 5 4 3 3 4 4 4 4 4 4 3 4 4 4
2 3 4 3 3 2 4 6 5 5 2 2 2 2 3 4 3 3 3 2 2 3 3 3 2 3 3 3 3 3 4 4 5 5 5 5 4 4 3 3 4 4 4 4 3 3 3 3 4
3 4 5 6 5 3 3 6 7 5 3 4 4 4 3 3 3 4 3 3 3 3 3 3 3 2 3 3 3 3 4 4 4 4 5 5 5 4 4 3 2 3 3 3 3 4 4 3 3
5 5 5 4 5 4 3 7 4 4 4 5 4 4 3 3 3 3 3 3 3 3 3 3 2 2 2 2 3 3 4 4 4 4 4 4 5 4 4 3 2 3 3 3 2 2 2 2 2
5 6 6 4 5 4 5 6 4 2 3 4 4 4 3 3 3 2 3 3 3 3 3 3 2 2 2 2 3 3 4 4 4 4 4 4 4 4 4 3 3 3 3 2 2 2 2 2 2
4 5 5 4 3 4 7 8 6 4 4 4 3 3 3 3 3 3 3 3 3 3 3 3 3 2 2 2 2 3 3 3 4 4 4 4 3 3 3 3 3 3 2 2 2 2 2 2 2
7 8 9 6 2 3 8 9 7 5 4 4 3 3 3 3 2 2 3 3 3 3 2 3 3 2 2 2 2 2 2 1 2 3 4 3 3 2 3 3 3 2 1 1 2 2 2 2 2
8 10 10 6 2 5 8 10 8 6 6 5 4 4 3 2 2 2 3 3 3 2 2 2 2 3 3 2 2 2 2 1 2 2 3 3 3 2 2 2 2 2 1 2 2 2 1 1 1
7 8 7 8 8 6 6 8 7 6 5 5 5 3 2 2 2 3 3 3 3 3 2 2 1 2 2 2 2 2 2 1 1 1 1 2 2 2 1 1 1 1 1 1 1 2 1 1 1
7 4 6 7 6 5 3 6 6 5 6 6 5 4 3 3 2 2 3 3 3 2 2 2 1 1 1 1 2 4 3 2 2 2 2 1 2 2 1 1 1 1 1 1 1 1 1 2 1
4 5 6 6 6 6 5 6 6 3 5 6 5 4 3 3 3 2 2 3 2 3 3 2 2 1 1 1 1 2 2 1 1 1 2 2 1 1 1 1 1 1 1 1 1 1 2 2 2
3 4 5 4 3 6 7 7 6 4 4 3 4 4 3 3 2 2 2 2 2 2 3 3 2 1 1 1 1 1 2 2 2 2 2 2 1 1 1 1 1 1 1 1 1 1 3 2 2
2 1 2 2 3 6 4 5 6 2 1 2 3 3 3 3 3 2 2 2 2 3 2 2 2 1 1 1 1 0 0 1 2 2 2 2 1 1 2 1 0 0 0 1 1 1 2 3 3
4 3 3 3 4 3 2 6 4 2 3 3 2 2 2 2 2 3 3 2 2 2 3 2 1 1 1 1 0 0 0 0 1 1 1 1 2 2 1 1 1 1 1 1 1 2 2 2 2
2 4 3 3 5 5 6 3 2 1 1 0 0 0 1 2 2 3 3 3 3 2 2 2 1 1 0 0 0 0 0 0 0 0 0 1 1 1 2 2 2 2 2 2 2 2 3 2 3
3 1 1 3 3 6 6 5 4 3 4 3 3 2 1 2 3 3 2 2 2 2 2 2 1 1 0 0 1 1 1 1 0 0 0 0 1 1 2 2 3 2 2 2 2 2 3 3 3
3 3 3 3 3 3 5 4 1 2 2 2 2 2 2 2 1 2 2 2 3 3 2 1 1 1 1 0 1 1 1 1 1 0 1 1 1 1 2 2 3 3 3 3 3 3 3 4 3
3 5 5 4 6 5 4 6 1 1 1 1 0 1 1 2 2 2 2 2 2 2 2 2 2 1 1 1 1 1 1 1 1 1 1 1 1 1 1 2 2 3 3 3 4 4 4 5 5
Wind_Direction
296 268 250 253 243 232 235 240 199 102 74 46 33 17 25 26 40 99 110 48 58 90 102 101 94 97 93 87 82 78 77 79 81 81 82 83 83 80 77 76 73 73 74 73 72 71 68 68 68
290 277 259 238 240 233 233 215 114 65 80 61 42 24 44 71 74 96 83 50 61 88 100 102 96 96 92 89 85 82 80 81 82 83 84 86 84 82 80 78 75 74 75 75 73 73 72 71 70
274 261 253 238 238 245 234 89 100 99 86 85 69 33 25 63 71 86 79 74 79 84 93 96 98 96 92 89 88 87 86 83 84 85 85 87 86 84 81 79 78 76 75 75 74 73 72 72 72
264 238 244 247 245 253 246 97 107 121 114 97 99 98 83 50 51 77 85 77 82 82 88 91 98 96 93 89 88 91 92 89 86 86 87 86 87 86 84 81 80 79 77 76 76 75 74 73 73
244 247 235 236 246 256 16 92 131 168 162 143 143 127 95 74 75 87 85 73 74 77 85 96 93 95 95 91 89 91 92 91 88 88 89 89 88 88 85 84 84 82 80 78 78 77 75 75 74
246 242 240 231 233 235 205 182 166 176 203 132 145 182 105 107 90 89 85 78 70 72 80 97 97 90 91 94 92 92 91 88 85 85 89 92 91 86 82 82 84 85 83 81 80 80 78 76 73
264 256 253 252 244 229 200 232 291 245 206 38 23 157 125 114 91 93 91 82 70 63 62 77 90 89 89 89 91 92 90 88 87 84 81 84 86 86 82 76 77 82 84 84 82 80 80 78 74
296 282 256 254 255 256 95 59 20 8 1 24 2 53 116 117 103 99 94 84 74 64 55 55 76 81 78 82 87 90 89 85 86 85 83 82 79 80 82 77 70 78 85 85 83 80 80 79 74
287 263 254 259 268 283 68 1 30 23 346 9 37 47 81 101 104 104 100 89 78 64 51 49 53 63 73 84 85 87 91 84 82 77 77 83 75 72 79 78 75 68 79 83 80 78 78 78 72
237 247 259 299 333 345 10 323 303 210 217 232 105 85 95 105 116 122 123 122 108 89 63 46 50 52 59 77 85 82 88 86 82 78 70 72 72 74 78 80 76 71 67 74 73 74 76 71 66
238 250 265 317 347 355 337 318 320 263 259 256 194 142 130 135 141 153 152 140 136 128 101 63 51 53 54 56 75 73 76 78 79 73 67 68 71 69 72 72 64 61 60 57 60 60 58 56 58
240 262 287 310 343 335 312 311 305 284 296 13 54 117 140 155 164 170 170 160 142 126 115 90 61 61 60 62 61 70 67 66 64 61 68 63 56 53 60 69 62 57 48 41 45 43 44 51 48
237 248 266 283 318 316 315 288 281 272 295 13 68 104 161 174 178 173 167 160 136 130 117 99 70 64 65 66 64 66 65 69 73 66 62 61 52 43 47 61 66 60 54 41 34 38 36 45 44
273 263 256 254 251 248 263 268 257 249 187 170 182 200 199 194 185 170 170 171 152 137 126 108 81 68 74 69 74 74 68 74 80 70 59 62 57 45 44 53 58 53 55 46 40 43 43 39 42
257 260 253 235 230 225 242 262 231 226 210 215 210 212 211 207 187 184 186 178 165 151 135 128 122 84 85 84 78 74 73 76 73 72 69 61 56 48 47 52 58 49 61 55 51 54 57 49 46
236 239 236 210 205 187 214 257 223 177 201 222 218 216 216 209 194 187 175 167 154 144 137 131 127 112 97 92 87 81 81 82 73 76 73 62 59 54 51 48 49 48 60 55 58 65 69 58 51
221 246 244 225 197 185 214 256 243 211 215 231 223 214 212 209 197 180 155 153 147 143 140 141 134 137 138 120 112 98 89 83 81 81 74 66 58 58 57 49 43 54 51 49 61 72 76 71 54
261 265 272 255 193 209 234 247 246 243 235 241 234 224 219 209 203 173 152 143 138 137 140 148 148 138 141 137 127 112 93 90 87 81 73 75 59 52 62 64 58 56 62 63 65 84 70 81 75
291 288 288 288 325 276 255 258 253 234 233 239 242 233 223 214 180 147 139 136 137 139 137 147 151 147 137 152 156 150 149 132 105 88 84 85 74 50 58 56 65 62 89 107 94 90 93 64 58
272 278 282 290 311 286 275 269 252 227 216 214 224 234 228 206 178 148 138 131 132 133 150 158 160 160 157 167 174 164 153 158 120 94 95 99 99 84 76 58 77 80 88 100 92 94 83 58 74
267 270 284 291 301 262 277 279 238 215 207 208 213 215 201 204 201 174 161 159 152 153 171 177 181 169 163 159 148 133 120 109 113 123 121 88 107 108 100 86 73 98 116 142 134 130 112 160 255
272 301 291 289 294 279 231 281 249 208 210 208 210 208 202 196 198 182 170 167 163 159 152 155 151 129 129 142 161 161 159 163 179 174 175 142 115 115 135 131 113 100 106 147 176 153 160 152 199
278 317 289 276 267 279 247 252 269 206 224 214 202 194 178 161 167 168 160 162 151 141 145 154 137 115 96 112 168 176 173 166 141 138 160 168 137 120 139 143 133 136 154 185 200 197 186 177 187
295 291 271 251 246 260 231 222 269 222 224 204 185 171 162 145 147 150 133 123 108 111 129 130 131 125 116 118 107 177 181 163 154 157 186 186 182 157 121 96 111 151 178 204 219 217 207 208 201
273 294 307 270 227 245 201 210 245 217 101 137 157 156 150 148 152 146 128 135 125 114 118 127 130 131 120 119 119 99 238 184 179 176 193 195 191 197 201 195 174 173 297 265 245 230 227 222 213
230 223 217 255 268 289 246 229 230 132 82 77 88 111 148 164 153 149 135 121 117 121 127 123 135 140 130 117 103 83 132 177 203 183 186 201 206 201 184 188 209 233 262 261 236 227 235 233 227
242 227 253 276 285 278 254 236 251 131 123 136 251 302 205 167 138 119 104 104 114 118 124 140 151 146 128 83 31 28 16 211 199 222 226 205 245 207 179 193 206 225 235 237 221 223 228 231 234
274 295 196 215 258 268 268 249 246 231 229 220 223 236 206 126 115 116 117 108 106 113 109 117 134 147 109 41 343 326 325 304 300 148 232 249 278 234 194 206 212 216 228 232 225 229 231 226 234
200 224 226 243 240 246 277 266 295 196 190 190 200 171 148 136 115 105 94 84 80 71 70 67 71 73 60 8 315 313 291 305 304 216 255 290 301 274 216 212 216 217 226 234 226 231 232 230 239
211 218 201 220 249 236 257 266 318 54 75 96 125 152 132 121 111 105 106 86 73 70 60 47 31 32 10 331 306 298 304 310 290 249 273 309 298 291 278 233 224 227 229 234 228 236 240 235 234
Height
1502 1503 1504 1506 1508 1508 1504 1497 1491 1493 1495 1498 1500 1500 1502 1507 1510 1520 1519 1517 1517 1518 1518 1520 1521 1522 1524 1524 1525 1526 1527 1527 1528 1528 1529 1529 1530 1531 1531 1532 1532 1532 1532 1532 1532 1532 1531 1530 1529
1502 1503 1506 1506 1507 1509 1503 1493 1494 1496 1498 1500 1501 1503 1504 1509 1512 1515 1516 1517 1517 1518 1518 1520 1521 1523 1524 1525 1526 1526 1527 1528 1528 1529 1530 1530 1531 1531 1532 1533 1533 1533 1534 1534 1534 1533 1533 1533 1532
1502 1504 1506 1503 1502 1503 1498 1493 1495 1497 1499 1501 1503 1505 1507 1511 1513 1514 1515 1516 1517 1517 1518 1520 1521 1523 1524 1525 1526 1526 1527 1528 1529 1529 1530 1531 1532 1532 1533 1534 1534 1534 1535 1535 1535 1535 1535 1535 1535
1503 1505 1504 1503 1501 1495 1493 1493 1495 1497 1500 1502 1504 1507 1510 1513 1513 1514 1515 1516 1517 1517 1518 1520 1521 1523 1524 1525 1526 1527 1527 1528 1529 1530 1530 1531 1532 1533 1534 1534 1535 1535 1536 1536 1536 1536 1537 1537 1537
1503 1503 1503 1502 1498 1493 1492 1493 1495 1497 1499 1502 1504 1507 1510 1512 1512 1513 1515 1516 1516 1517 1518 1520 1521 1523 1524 1525 1526 1527 1528 1528 1529 1530 1531 1531 1532 1533 1534 1535 1535 1536 1536 1537 1537 1538 1538 1538 1539
1504 1501 1503 1501 1495 1492 1493 1494 1496 1497 1499 1502 1504 1507 1511 1512 1512 1513 1514 1515 1516 1517 1518 1519 1521 1522 1523 1525 1525 1526 1528 1529 1529 1530 1531 1532 1532 1533 1534 1535 1536 1536 1537 1537 1538 1538 1539 1539 1540
1503 1500 1499 1495 1494 1493 1494 1495 1496 1498 1499 1502 1504 1506 1510 1511 1511 1512 1513 1515 1516 1516 1517 1519 1520 1522 1523 1524 1525 1526 1527 1528 1529 1530 1530 1531 1532 1533 1534 1535 1536 1536 1537 1537 1538 1539 1539 1540 1541
1501 1500 1496 1494 1494 1494 1494 1495 1497 1499 1501 1503 1504 1506 1509 1510 1510 1511 1513 1514 1515 1516 1517 1518 1520 1521 1522 1523 1524 1526 1527 1528 1528 1529 1530 1531 1531 1533 1534 1535 1535 1536 1537 1537 1538 1539 1540 1540 1541
1501 1502 1498 1493 1494 1494 1495 1496 1499 1501 1502 1504 1505 1506 1508 1509 1509 1510 1512 1513 1514 1515 1516 1517 1518 1520 1521 1522 1523 1524 1526 1527 1527 1528 1529 1530 1531 1532 1533 1534 1535 1536 1536 1537 1538 1538 1539 1540 1541
1500 1501 1496 1494 1493 1494 1496 1497 1499 1501 1502 1504 1505 1506 1507 1507 1508 1509 1510 1511 1512 1514 1515 1516 1517 1518 1520 1521 1522 1523 1524 1525 1526 1527 1528 1529 1530 1531 1532 1533 1534 1535 1536 1537 1537 1538 1539 1540 1541
1498 1497 1494 1495 1496 1496 1497 1499 1500 1501 1502 1504 1504 1505 1505 1506 1507 1508 1509 1510 1511 1512 1513 1514 1516 1517 1518 1519 1521 1522 1523 1524 1525 1526 1527 1528 1529 1530 1531 1532 1533 1534 1535 1535 1536 1537 1538 1540 1540
1497 1496 1495 1497 1497 1497 1498 1499 1500 1501 1502 1503 1503 1503 1504 1505 1506 1507 1507 1508 1509 1510 1511 1512 1514 1515 1517 1518 1519 1520 1521 1522 1523 1525 1526 1526 1527 1529 1529 1530 1532 1533 1534 1535 1535 1536 1538 1539 1540
1495 1495 1496 1497 1498 1498 1499 1499 1500 1500 1501 1501 1502 1502 1503 1503 1504 1505 1506 1506 1507 1508 1509 1510 1512 1513 1515 1516 1517 1518 1519 1520 1521 1523 1524 1525 1526 1527 1528 1529 1531 1532 1533 1534 1535 1535 1536 1538 1539
1495 1495 1496 1496 1497 1497 1498 1498 1499 1497 1499 1499 1500 1501 1501 1502 1502 1503 1504 1504 1505 1506 1507 1508 1510 1511 1512 1514 1515 1516 1517 1519 1520 1521 1522 1524 1525 1525 1526 1527 1529 1530 1531 1533 1534 1535 1535 1537 1538
1495 1496 1495 1494 1494 1496 1497 1497 1495 1495 1497 1497 1498 1499 1499 1500 1500 1501 1501 1502 1502 1504 1505 1506 1507 1509 1510 1511 1513 1514 1515 1517 1518 1519 1520 1522 1523 1523 1524 1526 1527 1528 1530 1531 1532 1533 1534 1535 1536
1495 1495 1495 1491 1491 1493 1498 1496 1492 1493 1494 1494 1495 1496 1497 1498 1498 1498 1499 1499 1500 1501 1502 1503 1505 1506 1507 1509 1510 1512 1513 1514 1516 1517 1518 1519 1520 1521 1523 1524 1525 1527 1528 1529 1530 1531 1532 1533 1534
1494 1494 1490 1490 1488 1490 1494 1493 1491 1491 1491 1492 1493 1493 1494 1495 1495 1495 1496 1497 1497 1498 1499 1500 1502 1503 1504 1506 1507 1509 1510 1511 1513 1514 1516 1517 1518 1519 1521 1522 1523 1524 1525 1527 1528 1529 1530 1531 1532
1494 1491 1487 1487 1487 1489 1491 1490 1488 1489 1489 1489 1490 1491 1491 1491 1492 1493 1493 1494 1495 1496 1497 1498 1499 1500 1502 1503 1504 1506 1507 1509 1510 1512 1513 1514 1516 1517 1518 1520 1521 1522 1523 1524 1525 1526 1527 1529 1529
1491 1490 1489 1487 1486 1488 1487 1486 1485 1486 1486 1487 1487 1488 1488 1488 1489 1490 1490 1491 1492 1493 1494 1494 1495 1497 1498 1499 1501 1502 1504 1505 1507 1509 1510 1512 1513 1515 1516 1517 1518 1519 1520 1521 1523 1524 1525 1526 1527
1492 1492 1490 1487 1486 1488 1486 1484 1481 1481 1482 1483 1484 1485 1485 1486 1486 1486 1487 1488 1488 1489 1490 1491 1492 1494 1495 1497 1498 1500 1501 1503 1504 1506 1507 1509 1510 1511 1512 1514 1515 1516 1518 1519 1520 1521 1521 1523 1524
1491 1493 1492 1492 1489 1486 1488 1483 1478 1477 1478 1479 1480 1481 1482 1483 1483 1483 1484 1485 1485 1486 1487 1488 1490 1491 1492 1494 1496 1497 1498 1499 1501 1502 1504 1505 1507 1508 1509 1510 1512 1513 1514 1515 1516 1517 1518 1519 1521
1494 1491 1491 1492 1494 1491 1487 1489 1475 1473 1474 1475 1476 1477 1479 1480 1481 1481 1482 1482 1482 1483 1484 1486 1487 1488 1489 1491 1492 1493 1494 1495 1496 1498 1500 1502 1503 1505 1506 1507 1508 1509 1510 1512 1513 1514 1515 1516 1517
1493 1492 1491 1491 1493 1494 1487 1490 1477 1471 1472 1472 1473 1474 1476 1477 1478 1479 1479 1480 1480 1481 1482 1483 1484 1485 1486 1488 1489 1490 1491 1493 1494 1495 1497 1498 1499 1501 1502 1503 1504 1506 1507 1508 1509 1510 1511 1513 1514
1493 1492 1490 1491 1493 1495 1483 1486 1476 1473 1469 1469 1470 1472 1473 1475 1476 1477 1477 1478 1478 1479 1480 1480 1481 1482 1483 1485 1486 1487 1488 1489 1491 1492 1493 1494 1495 1497 1498 1499 1500 1502 1503 1504 1505 1506 1507 1508 1510
1495 1497 1497 1495 1495 1487 1476 1479 1477 1467 1466 1467 1468 1470 1471 1473 1474 1474 1475 1475 1476 1476 1477 1478 1479 1479 1481 1482 1482 1483 1485 1486 1487 1488 1489 1490 1491 1493 1494 1495 1496 1497 1498 1499 1501 1502 1503 1504 1505
1494 1495 1500 1500 1492 1482 1477 1478 1472 1467 1467 1467 1468 1469 1470 1471 1472 1472 1473 1473 1474 1474 1475 1475 1476 1477 1477 1478 1479 1480 1482 1482 1483 1485 1486 1487 1488 1489 1490 1491 1492 1493 1494 1495 1496 1497 1498 1499 1500
1493 1495 1492 1497 1494 1493 1479 1470 1470 1467 1467 1467 1468 1468 1469 1470 1470 1471 1471 1472 1472 1472 1473 1473 1474 1475 1475 1475 1476 1477 1478 1479 1480 1481 1482 1483 1483 1484 1486 1487 1488 1489 1490 1491 1491 1492 1494 1495 1496
1494 1493 1497 1498 1497 1492 1475 1471 1470 1468 1467 1467 1467 1467 1468 1469 1469 1469 1470 1470 1471 1471 1471 1472 1472 1472 1472 1472 1473 1474 1474 1475 1476 1477 1478 1478 1479 1480 1481 1482 1483 1484 1485 1486 1486 1488 1489 1490 1491
1496 1496 1495 1495 1492 1493 1486 1477 1465 1465 1464 1466 1466 1466 1467 1467 1468 1468 1468 1469 1469 1469 1469 1469 1469 1469 1469 1469 1470 1470 1471 1472 1472 1473 1474 1474 1475 1476 1476 1477 1478 1479 1480 1481 1482 1482 1484 1484 1485
1490 1491 1495 1499 1495 1490 1489 1481 1465 1464 1463 1464 1465 1466 1466 1466 1466 1466 1466 1467 1467 1466 1466 1467 1467 1467 1466 1467 1467 1467 1467 1468 1469 1469 1470 1470 1471 1472 1472 1472 1473 1474 1475 1476 1477 1477 1478 1478 1479